Time,TemperatureF,DewpointF,PressureIn,WindDirection,WindDirectionDegrees,WindSpeedMPH,WindSpeedGustMPH,Humidity,HourlyPrecipIn,Conditions,Clouds,dailyrainin,SoftwareType,DateUTC
2013-11-29 00:02:00,23.5,20.5,30.30,West,270,2.7,-999.0,88,-99.99,,,0.00,Acu-Link.com,2013-11-29 05:02:00,
2013-11-29 00:17:00,23.5,21.0,30.30,South,180,3.2,-999.0,90,-99.99,,,0.00,Acu-Link.com,2013-11-29 05:17:00,
2013-11-29 00:32:00,23.7,20.9,30.30,West,270,3.2,-999.0,89,-99.99,,,0.00,Acu-Link.com,2013-11-29 05:32:00,
2013-11-29 00:55:00,23.7,20.9,30.30,WNW,292,4.2,-999.0,89,-99.99,,,0.00,Acu-Link.com,2013-11-29 05:55:00,
2013-11-29 01:13:00,23.9,21.1,30.30,WSW,247,4.2,-999.0,89,-99.99,,,0.00,Acu-Link.com,2013-11-29 06:13:00,
2013-11-29 01:29:00,23.9,21.1,30.30,WSW,247,5.8,-999.0,89,-99.99,,,0.00,Acu-Link.com,2013-11-29 06:29:00,
2013-11-29 01:44:00,23.9,20.6,30.30,WSW,247,3.2,-999.0,87,-99.99,,,0.00,Acu-Link.com,2013-11-29 06:44:00,
2013-11-29 01:59:00,23.9,20.9,30.31,West,270,4.7,-999.0,88,-99.99,,,0.00,Acu-Link.com,2013-11-29 06:59:00,
2013-11-29 02:14:00,23.9,20.9,30.32,West,270,3.2,-999.0,88,-99.99,,,0.00,Acu-Link.com,2013-11-29 07:14:00,
2013-11-29 02:30:00,23.9,20.9,30.31,West,270,4.2,-999.0,88,-99.99,,,0.00,Acu-Link.com,2013-11-29 07:30:00,
2013-11-29 02:45:00,23.7,20.9,30.31,West,270,4.2,-999.0,89,-99.99,,,0.00,Acu-Link.com,2013-11-29 07:45:00,
2013-11-29 03:00:00,23.7,20.9,30.32,SSW,202,3.7,-999.0,89,-99.99,,,0.00,Acu-Link.com,2013-11-29 08:00:00,
2013-11-29 03:15:00,23.7,20.9,30.32,WNW,292,3.7,-999.0,89,-99.99,,,0.00,Acu-Link.com,2013-11-29 08:15:00,
2013-11-29 03:30:00,23.7,20.9,30.32,West,270,3.7,-999.0,89,-99.99,,,0.00,Acu-Link.com,2013-11-29 08:30:00,
2013-11-29 03:45:00,23.5,21.0,30.32,West,270,8.3,-999.0,90,-99.99,,,0.00,Acu-Link.com,2013-11-29 08:45:00,
2013-11-29 04:01:00,23.5,21.0,30.32,West,270,5.8,-999.0,90,-99.99,,,0.00,Acu-Link.com,2013-11-29 09:01:00,
2013-11-29 04:16:00,23.4,21.2,30.32,WNW,292,4.2,-999.0,91,-99.99,,,0.00,Acu-Link.com,2013-11-29 09:16:00,
2013-11-29 04:31:00,23.2,21.0,30.32,West,270,5.3,-999.0,91,-99.99,,,0.00,Acu-Link.com,2013-11-29 09:31:00,
2013-11-29 04:46:00,23.2,21.2,30.33,SW,225,5.8,-999.0,92,-99.99,,,0.00,Acu-Link.com,2013-11-29 09:46:00,
2013-11-29 05:01:00,23.2,21.0,30.34,West,270,3.7,-999.0,91,-99.99,,,0.00,Acu-Link.com,2013-11-29 10:01:00,
2013-11-29 05:17:00,23.2,21.0,30.34,SSW,202,3.7,-999.0,91,-99.99,,,0.00,Acu-Link.com,2013-11-29 10:17:00,
2013-11-29 05:33:00,23.2,21.0,30.35,West,270,4.7,-999.0,91,-99.99,,,0.00,Acu-Link.com,2013-11-29 10:33:00,
2013-11-29 05:48:00,23.2,20.7,30.35,West,270,4.7,-999.0,90,-99.99,,,0.00,Acu-Link.com,2013-11-29 10:48:00,
2013-11-29 06:03:00,23.2,20.7,30.36,West,270,5.8,-999.0,90,-99.99,,,0.00,Acu-Link.com,2013-11-29 11:03:00,
2013-11-29 06:18:00,23.0,20.5,30.36,West,270,3.7,-999.0,90,-99.99,,,0.00,Acu-Link.com,2013-11-29 11:18:00,
2013-11-29 06:33:00,22.6,20.1,30.36,WNW,292,4.7,-999.0,90,-99.99,,,0.00,Acu-Link.com,2013-11-29 11:33:00,
2013-11-29 06:48:00,22.5,20.0,30.37,West,270,4.7,-999.0,90,-99.99,,,0.00,Acu-Link.com,2013-11-29 11:48:00,
2013-11-29 07:04:00,22.1,19.6,30.38,West,270,4.2,-999.0,90,-99.99,,,0.00,Acu-Link.com,2013-11-29 12:04:00,
2013-11-29 07:19:00,21.9,19.4,30.38,West,270,2.7,-999.0,90,-99.99,,,0.00,Acu-Link.com,2013-11-29 12:19:00,
2013-11-29 09:32:00,24.4,21.1,30.45,NW,315,3.7,-999.0,87,-99.99,,,0.00,Acu-Link.com,2013-11-29 14:32:00,
2013-11-29 09:47:00,25.3,21.7,30.45,NNW,337,2.7,-999.0,86,-99.99,,,0.00,Acu-Link.com,2013-11-29 14:47:00,
2013-11-29 10:02:00,25.9,21.7,30.46,WNW,292,4.2,-999.0,84,-99.99,,,0.00,Acu-Link.com,2013-11-29 15:02:00,
2013-11-29 10:17:00,25.5,21.6,30.46,West,270,4.7,-999.0,85,-99.99,,,0.00,Acu-Link.com,2013-11-29 15:17:00,
2013-11-29 10:32:00,25.9,21.7,30.47,NW,315,3.7,-999.0,84,-99.99,,,0.00,Acu-Link.com,2013-11-29 15:32:00,
2013-11-29 10:50:00,26.6,21.9,30.48,West,270,4.7,-999.0,82,-99.99,,,0.00,Acu-Link.com,2013-11-29 15:50:00,
2013-11-29 11:09:00,27.0,21.7,30.48,South,180,6.3,-999.0,80,-99.99,,,0.00,Acu-Link.com,2013-11-29 16:09:00,
2013-11-29 11:27:00,27.1,21.8,30.48,West,270,5.3,-999.0,80,-99.99,,,0.00,Acu-Link.com,2013-11-29 16:27:00,
2013-11-29 11:42:00,27.7,21.4,30.48,West,270,5.3,-999.0,77,-99.99,,,0.00,Acu-Link.com,2013-11-29 16:42:00,
2013-11-29 11:57:00,27.7,21.1,30.47,West,270,4.7,-999.0,76,-99.99,,,0.00,Acu-Link.com,2013-11-29 16:57:00,
2013-11-29 12:12:00,27.9,20.7,30.47,WSW,247,4.7,-999.0,74,-99.99,,,0.00,Acu-Link.com,2013-11-29 17:12:00,
2013-11-29 12:31:00,29.3,21.4,30.47,West,270,4.7,-999.0,72,-99.99,,,0.00,Acu-Link.com,2013-11-29 17:31:00,
2013-11-29 12:46:00,30.0,21.4,30.47,West,270,4.2,-999.0,70,-99.99,,,0.00,Acu-Link.com,2013-11-29 17:46:00,
2013-11-29 13:01:00,29.5,21.6,30.47,West,270,5.3,-999.0,72,-99.99,,,0.00,Acu-Link.com,2013-11-29 18:01:00,
2013-11-29 13:17:00,30.2,21.6,30.47,West,270,2.2,-999.0,70,-99.99,,,0.00,Acu-Link.com,2013-11-29 18:17:00,
2013-11-29 13:32:00,29.5,20.9,30.47,West,270,3.7,-999.0,70,-99.99,,,0.00,Acu-Link.com,2013-11-29 18:32:00,
2013-11-29 13:47:00,30.0,21.8,30.46,West,270,4.7,-999.0,71,-99.99,,,0.00,Acu-Link.com,2013-11-29 18:47:00,
2013-11-29 14:03:00,29.5,21.3,30.46,West,270,3.2,-999.0,71,-99.99,,,0.00,Acu-Link.com,2013-11-29 19:03:00,
2013-11-29 14:18:00,30.6,22.0,30.46,WSW,247,6.8,-999.0,70,-99.99,,,0.00,Acu-Link.com,2013-11-29 19:18:00,
2013-11-29 14:33:00,31.3,22.3,30.46,West,270,4.7,-999.0,69,-99.99,,,0.00,Acu-Link.com,2013-11-29 19:33:00,
2013-11-29 14:48:00,31.6,23.3,30.47,West,270,3.7,-999.0,71,-99.99,,,0.00,Acu-Link.com,2013-11-29 19:48:00,
2013-11-29 15:03:00,30.7,21.8,30.47,NW,315,3.2,-999.0,69,-99.99,,,0.00,Acu-Link.com,2013-11-29 20:03:00,
2013-11-29 15:19:00,31.1,22.1,30.47,West,270,5.3,-999.0,69,-99.99,,,0.00,Acu-Link.com,2013-11-29 20:19:00,
2013-11-29 15:34:00,30.4,21.8,30.47,NNW,337,3.7,-999.0,70,-99.99,,,0.00,Acu-Link.com,2013-11-29 20:34:00,
2013-11-29 15:49:00,30.4,21.8,30.48,NW,315,2.7,-999.0,70,-99.99,,,0.00,Acu-Link.com,2013-11-29 20:49:00,
2013-11-29 16:04:00,29.5,21.9,30.48,WNW,292,2.7,-999.0,73,-99.99,,,0.00,Acu-Link.com,2013-11-29 21:04:00,
2013-11-29 16:20:00,29.7,21.8,30.48,NW,315,1.1,-999.0,72,-99.99,,,0.00,Acu-Link.com,2013-11-29 21:20:00,
2013-11-29 16:35:00,28.6,21.4,30.48,NW,315,2.2,-999.0,74,-99.99,,,0.00,Acu-Link.com,2013-11-29 21:35:00,
2013-11-29 16:50:00,27.7,21.1,30.49,NNE,22,0.0,-999.0,76,-99.99,,,0.00,Acu-Link.com,2013-11-29 21:50:00,
2013-11-29 17:05:00,26.4,20.2,30.49,North,0,0.0,-999.0,77,-99.99,,,0.00,Acu-Link.com,2013-11-29 22:05:00,
2013-11-29 17:20:00,25.0,20.0,30.49,ESE,112,0.0,-999.0,81,-99.99,,,0.00,Acu-Link.com,2013-11-29 22:20:00,
2013-11-29 17:36:00,24.4,20.3,30.49,ESE,112,0.0,-999.0,84,-99.99,,,0.00,Acu-Link.com,2013-11-29 22:36:00,
2013-11-29 17:51:00,24.1,20.3,30.49,ESE,112,0.0,-999.0,85,-99.99,,,0.00,Acu-Link.com,2013-11-29 22:51:00,
2013-11-29 18:06:00,23.7,20.1,30.51,ESE,112,0.0,-999.0,86,-99.99,,,0.00,Acu-Link.com,2013-11-29 23:06:00,
2013-11-29 18:21:00,23.4,20.1,30.51,ESE,112,0.0,-999.0,87,-99.99,,,0.00,Acu-Link.com,2013-11-29 23:21:00,
2013-11-29 18:36:00,22.8,19.8,30.52,ESE,112,0.0,-999.0,88,-99.99,,,0.00,Acu-Link.com,2013-11-29 23:36:00,
2013-11-29 18:52:00,22.5,20.3,30.51,ESE,112,1.7,-999.0,91,-99.99,,,0.00,Acu-Link.com,2013-11-29 23:52:00,
2013-11-29 19:07:00,22.1,20.4,30.52,ESE,112,0.0,-999.0,93,-99.99,,,0.00,Acu-Link.com,2013-11-30 00:07:00,
2013-11-29 19:22:00,21.7,20.2,30.53,ESE,112,0.0,-999.0,94,-99.99,,,0.00,Acu-Link.com,2013-11-30 00:22:00,
2013-11-29 19:37:00,21.4,20.4,30.53,ESE,112,0.0,-999.0,96,-99.99,,,0.00,Acu-Link.com,2013-11-30 00:37:00,
2013-11-29 19:52:00,21.0,20.3,30.53,ESE,112,0.0,-999.0,97,-99.99,,,0.00,Acu-Link.com,2013-11-30 00:52:00,
2013-11-29 20:08:00,20.5,20.0,30.53,SE,135,0.0,-999.0,98,-99.99,,,0.00,Acu-Link.com,2013-11-30 01:08:00,
2013-11-29 20:23:00,20.3,20.1,30.53,ESE,112,1.7,-999.0,99,-99.99,,,0.00,Acu-Link.com,2013-11-30 01:23:00,
2013-11-29 20:38:00,19.9,19.7,30.54,SSE,157,2.7,-999.0,99,-99.99,,,0.00,Acu-Link.com,2013-11-30 01:38:00,
2013-11-29 20:53:00,19.2,19.0,30.53,ESE,112,0.0,-999.0,99,-99.99,,,0.00,Acu-Link.com,2013-11-30 01:53:00,
2013-11-29 21:08:00,18.9,18.7,30.54,ESE,112,1.1,-999.0,99,-99.99,,,0.00,Acu-Link.com,2013-11-30 02:08:00,
2013-11-29 21:24:00,18.7,18.5,30.53,SE,135,1.7,-999.0,99,-99.99,,,0.00,Acu-Link.com,2013-11-30 02:24:00,
2013-11-29 21:39:00,19.0,18.8,30.53,ESE,112,2.7,-999.0,99,-99.99,,,0.00,Acu-Link.com,2013-11-30 02:39:00,
2013-11-29 21:54:00,19.2,19.0,30.54,SE,135,2.2,-999.0,99,-99.99,,,0.00,Acu-Link.com,2013-11-30 02:54:00,
2013-11-29 22:09:00,19.0,18.8,30.53,SSW,202,1.7,-999.0,99,-99.99,,,0.00,Acu-Link.com,2013-11-30 03:09:00,
2013-11-29 22:25:00,18.7,18.5,30.52,SE,135,0.0,-999.0,99,-99.99,,,0.00,Acu-Link.com,2013-11-30 03:25:00,
2013-11-29 22:40:00,19.0,18.8,30.53,ESE,112,3.2,-999.0,99,-99.99,,,0.00,Acu-Link.com,2013-11-30 03:40:00,
2013-11-29 22:55:00,18.9,18.7,30.54,NNW,337,1.7,-999.0,99,-99.99,,,0.00,Acu-Link.com,2013-11-30 03:55:00,
2013-11-29 23:10:00,18.3,18.1,30.54,SSW,202,0.0,-999.0,99,-99.99,,,0.00,Acu-Link.com,2013-11-30 04:10:00,
2013-11-29 23:25:00,17.8,17.6,30.53,South,180,0.0,-999.0,99,-99.99,,,0.00,Acu-Link.com,2013-11-30 04:25:00,
2013-11-29 23:41:00,19.0,18.8,30.53,ESE,112,3.7,-999.0,99,-99.99,,,0.00,Acu-Link.com,2013-11-30 04:41:00,
2013-11-29 23:56:00,19.2,19.0,30.51,SE,135,0.0,-999.0,99,-99.99,,,0.00,Acu-Link.com,2013-11-30 04:56:00,